HG2HNB-13 Weather Reports


time (UTC)temp
F
wind
direction
speed
knots
gust
knots
rain 1hr
in
rain 24hr
in
rain mn
in
humidity
%
barometer
mb
20260506081633 64 180 9.6 13.0 0.00 0.00 0.00 47 1011.1
20260506080729 64 225 9.6 13.9 0.00 0.00 0.00 47 1010.8
20260506072748 62 225 13.0 17.4 0.00 0.00 0.00 51 1010.9
20260506071713 62 225 13.0 19.1 0.00 0.00 0.00 51 1011.1
20260506070608 62 225 11.3 13.9 0.00 0.00 0.00 51 1010.9
20260506061633 59 225 13.0 16.5 0.00 0.00 0.00 53 1011.0
20260506060609 59 270 13.0 17.4 0.00 0.00 0.00 54 1010.9
20260506050649 57 180 13.9 19.1 0.00 0.00 0.00 56 1010.6
20260506044709 56 270 10.4 14.8 0.00 0.00 0.00 57 1010.5
20260506043633 56 225 8.7 13.9 0.00 0.00 0.00 57 1010.6
20260506042628 56 180 9.6 13.0 0.00 0.00 0.00 57 1010.4
20260506041632 56 225 9.6 13.0 0.00 0.00 0.00 57 1010.5
20260506040605 56 225 9.6 12.2 0.00 0.00 0.00 57 1010.3
20260506035629 56 225 9.6 13.0 0.00 0.00 0.00 57 1010.3
20260506034605 56 225 13.0 16.5 0.00 0.00 0.00 56 1010.0
20260506033709 56 225 14.8 17.4 0.00 0.00 0.00 55 1009.7
20260506032625 57 225 13.9 20.0 0.00 0.00 0.00 55 1009.8
20260506031629 57 180 15.6 20.0 0.00 0.00 0.00 55 1009.6
20260506030625 57 225 14.8 18.2 0.00 0.00 0.00 54 1009.7
20260506025629 57 135 14.8 19.1 0.00 0.00 0.00 55 1009.8
20260506024605 57 180 12.2 14.8 0.00 0.00 0.00 55 1009.7
20260506023709 57 270 11.3 14.8 0.00 0.00 0.00 54 1009.8
20260506022605 58 180 10.4 15.6 0.00 0.00 0.00 54 1009.8
20260506021629 58 180 13.0 15.6 0.00 0.00 0.00 54 1009.9
20260506020725 58 225 14.8 18.2 0.00 0.00 0.00 54 1009.7
20260506015629 58 225 13.0 15.6 0.00 0.00 0.00 53 1009.8
20260506014645 58 270 12.2 15.6 0.00 0.00 0.00 54 1009.9
20260506013649 58 180 13.0 14.8 0.00 0.00 0.00 53 1010.1
20260506012645 58 225 8.7 11.3 0.00 0.00 0.00 54 1010.1
20260506011629 58 225 10.4 13.0 0.00 0.00 0.00 53 1010.0
20260506010625 59 180 13.0 15.6 0.00 0.00 0.00 53 1010.1
20260506005709 59 180 19.1 23.5 0.00 0.00 0.00 52 1009.9
20260506004645 59 225 14.8 19.1 0.00 0.00 0.00 53 1010.0
20260506003649 59 225 13.0 14.8 0.00 0.00 0.00 52 1009.8
20260506002645 59 225 14.8 20.0 0.00 0.00 0.00 52 1009.5
20260506001709 60 225 13.0 18.2 0.00 0.00 0.00 52 1009.5
20260506000605 60 293 13.0 16.5 0.00 0.00 0.00 51 1009.9
20260505235649 60 225 13.0 14.8 0.00 0.00 0.00 51 1009.9
20260505234605 60 270 12.2 15.6 0.00 0.00 0.00 51 1010.1
20260505233709 60 225 13.9 18.2 0.00 0.00 0.00 51 1009.8
20260505232605 60 225 15.6 20.0 0.00 0.00 0.00 51 1010.1
20260505231629 60 180 12.2 14.8 0.00 0.00 0.00 51 1010.1
20260505230645 60 225 13.0 19.1 0.00 0.00 0.00 51 1010.1
20260505225629 60 225 13.9 20.0 0.00 0.00 0.00 51 1010.4
20260505224625 60 225 13.0 16.5 0.00 0.00 0.00 51 1010.4
20260505223629 60 225 13.0 17.4 0.00 0.00 0.00 50 1010.6
20260505222605 60 315 11.3 14.8 0.00 0.00 0.00 50 1010.6
20260505221629 61 225 9.6 13.9 0.00 0.00 0.00 51 1010.5
20260505220625 61 225 9.6 13.0 0.00 0.00 0.00 50 1010.5
20260505215628 61 225 14.8 18.2 0.00 0.00 0.00 50 1010.7
20260505214605 61 225 8.7 13.0 0.00 0.00 0.00 50 1010.7
20260505213629 61 225 13.0 20.0 0.00 0.00 0.00 50 1010.5
20260505212705 61 225 13.0 15.6 0.00 0.00 0.00 50 1010.7
20260505211629 61 225 13.0 17.4 0.00 0.00 0.00 50 1010.7
20260505210625 61 225 11.3 13.0 0.00 0.00 0.00 48 1010.6
20260505205649 62 225 9.6 13.0 0.00 0.00 0.00 47 1010.6
20260505204625 62 180 10.4 14.8 0.00 0.00 0.00 46 1010.7
20260505203649 62 225 14.8 17.4 0.00 0.00 0.00 45 1010.8
20260505202625 62 225 11.3 14.8 0.00 0.00 0.00 45 1010.7
20260505201629 62 225 12.2 14.8 0.00 0.00 0.00 44 1010.8
20260505200645 62 225 13.0 15.6 0.00 0.00 0.00 44 1010.7
20260505195629 63 225 13.9 18.2 0.00 0.00 0.00 44 1010.6
20260505193649 63 180 13.0 16.5 0.00 0.00 0.00 44 1010.6
20260505192645 63 225 13.0 14.8 0.00 0.00 0.00 44 1010.7
20260505191649 63 315 17.4 23.5 0.00 0.00 0.00 44 1010.6
20260505190625 64 180 13.9 18.2 0.00 0.00 0.00 41 1010.6
20260505185629 64 270 14.8 16.5 0.00 0.00 0.00 41 1010.6
20260505184605 64 180 16.5 26.9 0.00 0.00 0.00 42 1010.7
20260505183629 64 225 16.5 23.5 0.00 0.00 0.00 42 1010.3
20260505182645 65 180 14.8 16.5 0.00 0.00 0.00 41 1010.3
20260505181629 65 225 15.6 20.0 0.00 0.00 0.00 41 1010.6
20260505180605 65 225 14.8 18.2 0.00 0.00 0.00 40 1010.6
20260505175629 65 225 12.2 18.2 0.00 0.00 0.00 40 1010.6
20260505174625 66 270 13.0 16.5 0.00 0.00 0.00 40 1010.6
20260505173649 66 225 13.0 16.5 0.00 0.00 0.00 40 1010.7
20260505172625 67 248 10.4 19.1 0.00 0.00 0.00 40 1010.7
20260505171649 67 225 16.5 24.3 0.00 0.00 0.00 40 1010.6
20260505170625 67 180 17.4 24.3 0.00 0.00 0.00 40 1010.9
20260505165649 68 0 13.0 16.5 0.00 0.00 0.00 38 1010.7
20260505164645 68 270 13.0 18.2 0.00 0.00 0.00 37 1010.6
20260505163629 68 293 13.9 19.1 0.00 0.00 0.00 36 1010.8
20260505162605 69 225 14.8 20.0 0.00 0.00 0.00 34 1010.8
20260505161649 69 180 13.0 18.2 0.00 0.00 0.00 34 1010.8
20260505160645 69 180 13.0 16.5 0.00 0.00 0.00 33 1011.1
20260505152705 71 225 10.4 13.9 0.00 0.00 0.00 33 1010.8
20260505151709 71 270 12.2 13.9 0.00 0.00 0.00 33 1011.0
20260505150605 72 225 11.3 14.8 0.00 0.00 0.00 32 1010.9
20260505140645 75 225 13.9 19.1 0.00 0.00 0.00 28 1011.1
20260505124645 77 180 13.0 17.4 0.00 0.00 0.00 25 1011.6
20260505123709 77 225 11.3 17.4 0.00 0.00 0.00 24 1011.7
20260505122605 77 270 12.2 14.8 0.00 0.00 0.00 23 1011.8
20260505121629 77 225 14.8 18.2 0.00 0.00 0.00 23 1011.9
20260505120625 77 225 13.0 18.2 0.00 0.00 0.00 24 1012.0
20260505115649 77 180 10.4 14.8 0.00 0.00 0.00 25 1012.1
20260505114625 77 225 13.0 13.9 0.00 0.00 0.00 24 1012.0
20260505113649 75 270 9.6 14.8 0.00 0.00 0.00 26 1012.0
20260505112605 75 180 9.6 12.2 0.00 0.00 0.00 29 1012.1
20260505111629 75 225 7.8 11.3 0.00 0.00 0.00 30 1012.3
20260505110605 75 180 9.6 11.3 0.00 0.00 0.00 30 1012.4
20260505101629 73 225 11.3 13.9 0.00 0.00 0.00 32 1012.6
20260505100605 71 270 7.8 9.6 0.00 0.00 0.00 33 1012.8
20260505095649 71 248 10.4 13.0 0.00 0.00 0.00 33 1012.8
20260505094605 71 180 7.0 7.8 0.00 0.00 0.00 34 1013.1
20260505093629 71 248 6.1 7.8 0.00 0.00 0.00 33 1013.1
20260505092705 72 225 9.6 13.0 0.00 0.00 0.00 32 1012.9
20260505091635 72 248 10.4 15.6 0.00 0.00 0.00 34 1013.0
20260505090645 72 180 8.7 10.4 0.00 0.00 0.00 34 1013.0
20260505085629 72 315 13.0 14.8 0.00 0.00 0.00 33 1013.1
20260505084625 71 225 11.3 14.8 0.00 0.00 0.00 33 1012.9
20260505083709 71 225 14.8 19.1 0.00 0.00 0.00 33 1013.0
20260505082300 71 225 14.8 17.4 0.00 0.00 0.00 35 1013.0